Torna al catalogo

STARLINK-11407

AttivoComunicazioniVLEO
NORAD 61939·PAYLOAD·🇺🇸 United States

Lanciato Nov 14, 2024 da Vandenberg Space Force Base

Loading…

Prossimi Passaggi (prossime 24 ore)

TLE

AggiornatoSource: CelesTrak SupGP

Epoca: Sep 14, 2026, 20:51 UTC

1 61939C 24209A   26257.86923611 -.00139740  00000+0 -11490-2 0  2572
2 61939  53.1574 158.4512 0001050  89.6623 275.5598 15.69823238    10

Traccia STARLINK-11407 in tempo reale con AllMySat

Download on the App Store